Skip Page Navigation
NASA JPL Caltech
NASA Logo - Jet Propulsion Laboratory + View the NASA Portal
+ Near-Earth Object (NEO) Program
Search JPL
JPL Home Earth Solar System Stars & Galaxies Technology
JPL Solar System Dynamics
BODIES ORBITS EPHEMERIDES TOOLS PHYSICAL DATA DISCOVERY FAQ SITE MAP
JPL Small-Body Database Browser
Search: [ help ]  
48493 (1992 WG)
Classification: Main-belt Asteroid          SPK-ID: 2048493
Ephemeris | Orbit Diagram | Orbital Elements | Physical Parameters | Discovery Circumstances ]

[ show orbit diagram ]
Orbital Elements at Epoch 2457000.5 (2014-Dec-09.0) TDB
Reference: JPL 8 (heliocentric ecliptic J2000)
 Element Value Uncertainty (1-sigma)   Units 
e .139973744340141 9.9204e-08  
a 3.031000714927678 4.2005e-08 AU
q 2.606740195761606 3.1203e-07 AU
i 12.39309144820328 1.0574e-05 deg
node 53.53168479919263 3.1409e-05 deg
peri 354.5217189403969 4.2899e-05 deg
M 66.9184447028108 2.5339e-05 deg
tp 2456642.221437555560
(2013-Dec-15.72143756)
0.00013625 JED
period 1927.424988025476
5.28
4.0067e-05
1.097e-07
d
yr
n .186777696790575 3.8827e-09 deg/d
Q 3.455261234093749 4.7885e-08 AU
  Orbit Determination Parameters
   # obs. used (total)      610  
   data-arc span      7764 days (21.26 yr)  
   first obs. used      1992-10-25  
   last obs. used      2014-01-27  
   planetary ephem.      DE431  
   SB-pert. ephem.      SB431-BIG16  
   condition code      0  
   fit RMS      .61333  
   data source      ORB  
   producer      Otto Matic  
   solution date      2014-Jun-10 07:19:47  

Additional Information
 Earth MOID = 1.61696 AU 
 T_jup = 3.193 
[ show covariance matrix ]

Ephemeris | Orbit Diagram | Orbital Elements | Physical Parameters | Discovery Circumstances ]

Physical Parameter Table
Parameter Symbol Value Units Sigma Reference Notes
absolute magnitude H 13.7 mag n/a MPO284499  

48493 (1992 WG)          Discovered 1992-Nov-16 by Ueda, S., Kaneda, H. at Kushiro (399)
Reference: 20021120/Numbers.arcLast Updated: 2004-04-19

Alternate Designations
 1992 WG = 1999 CC22 
Ephemeris | Orbit Diagram | Orbital Elements | Physical Parameters | Discovery Circumstances ]
ABOUT SSD CREDITS/AWARDS PRIVACY/COPYRIGHT GLOSSARY LINKS
FirstGov 2014-Sep-02 09:19 UT
(server date/time)  
NASA Home Page
Site Manager:   Donald K. Yeomans
Webmaster  Alan B. Chamberlin